Weather History for West Palm Beach, FL

Change the Weather History Date:

Wednesday, February 13, 2013

  Actual Average Record
Temperature  
Mean Temperature 79 °F 68 °F  
Max Temperature 88 °F 76 °F 89 °F (1905)
Min Temperature 69 °F 59 °F 35 °F (1925)
Degree Days  
Heating Degree Days 0 2  
Month to date heating degree days 11 26  
Since 1 July heating degree days 59 183  
Cooling Degree Days 14 5  
Month to date cooling degree days 65 53  
Year to date cooling degree days 286 161  
Growing Degree Days 28 (Base 50)    
Moisture  
Dew Point 68 °F    
Average Humidity 74    
Maximum Humidity 97    
Minimum Humidity 51    
Precipitation  
Precipitation 0.00 in 0.10 in 2.25 in (2008)
Month to date precipitation 0.06 1.24  
Year to date precipitation 0.85 4.37  
Snow  
Snow 0.00 in - - ()
Month to date snowfall 0.0  
Since 1 July snowfall 0.0  
Snow Depth 0.00 in    
Sea Level Pressure  
Sea Level Pressure 29.95 in    
Wind  
Wind Speed 10 mph (SSW)    
Max Wind Speed 20 mph    
Max Gust Speed 24 mph    
Visibility 10 miles    
Events      
T = Trace of Precipitation, MM = Missing Value Source: NWS Daily Summary

Daily Weather History Graph

Daily Weather History Graph

Search for Another Location

Airport:

Trip Planner

Search our weather history database for the weather conditions in past years. The results will help you decide how hot, cold, wet, or windy it might be!

Date:

Astronomy

Feb. 13, 2013 Rise Set
Actual Time 6:57 AM EST 6:11 PM EST
Civil Twilight 6:34 AM EST 6:35 PM EST
Nautical Twilight 6:06 AM EST 7:02 PM EST
Astronomical Twilight 5:39 AM EST 7:29 PM EST
Moon 8:52 AM EST (2/13) 9:43 PM EST (2/13)
Length of Visible Light 12h 01m
Length of Day
11h 13m
Waxing Crescent, 13% of the Moon is Illuminated
Feb 13
Waxing Crescent
Feb 17
First Quarter
Feb 25
Full
Mar 4
Last Quarter
Mar 11
New

Hourly Weather History & Observations

Time (EST) Temp. Heat Index Dew Point Humidity Pressure Visibility Wind Dir Wind Speed Gust Speed Precip Events Conditions
12:53 AM 70.0 °F - 66.0 °F 87% 30.00 in 10.0 mi South 4.6 mph - N/A   Partly Cloudy
1:53 AM 69.1 °F - 66.9 °F 93% 29.99 in 10.0 mi South 5.8 mph - N/A   Partly Cloudy
2:53 AM 69.1 °F - 66.9 °F 93% 29.97 in 10.0 mi South 5.8 mph - N/A   Partly Cloudy
3:53 AM 69.1 °F - 66.9 °F 93% 29.97 in 10.0 mi South 5.8 mph - N/A   Partly Cloudy
4:53 AM 70.0 °F - 68.0 °F 93% 29.97 in 10.0 mi South 5.8 mph - N/A   Mostly Cloudy
5:53 AM 70.0 °F - 68.0 °F 93% 29.98 in 10.0 mi South 5.8 mph - N/A   Scattered Clouds
6:53 AM 70.0 °F - 68.0 °F 93% 29.98 in 10.0 mi South 4.6 mph - N/A   Scattered Clouds
7:53 AM 71.1 °F - 69.1 °F 93% 29.98 in 10.0 mi South 5.8 mph - N/A   Partly Cloudy
8:53 AM 75.9 °F - 70.0 °F 82% 30.00 in 10.0 mi South 11.5 mph - N/A   Partly Cloudy
9:53 AM 80.1 °F 82.7 °F 68.0 °F 67% 30.01 in 10.0 mi South 16.1 mph 20.7 mph N/A   Scattered Clouds
10:53 AM 82.0 °F 84.9 °F 68.0 °F 62% 30.00 in 10.0 mi South 12.7 mph - N/A   Mostly Cloudy
11:53 AM 84.0 °F 86.5 °F 66.9 °F 56% 29.98 in 10.0 mi SSW 13.8 mph 18.4 mph N/A   Mostly Cloudy
12:53 PM 81.0 °F 84.4 °F 70.0 °F 69% 29.95 in 10.0 mi South 11.5 mph - N/A   Mostly Cloudy
1:53 PM 86.0 °F 90.1 °F 69.1 °F 57% 29.91 in 10.0 mi SSE 13.8 mph - N/A   Mostly Cloudy
2:53 PM 86.0 °F 88.8 °F 66.9 °F 53% 29.89 in 10.0 mi SW 13.8 mph 19.6 mph N/A   Mostly Cloudy
3:53 PM 82.0 °F 85.9 °F 70.0 °F 67% 29.88 in 10.0 mi South 13.8 mph - N/A   Scattered Clouds
4:53 PM 82.0 °F 85.9 °F 70.0 °F 67% 29.88 in 10.0 mi South 12.7 mph - N/A   Scattered Clouds
5:53 PM 82.0 °F 84.1 °F 66.0 °F 58% 29.89 in 10.0 mi SW 17.3 mph 21.9 mph N/A   Scattered Clouds
6:53 PM 80.1 °F 82.3 °F 66.9 °F 64% 29.91 in 10.0 mi SSW 15.0 mph 20.7 mph N/A   Partly Cloudy
7:53 PM 78.1 °F - 66.9 °F 68% 29.91 in 10.0 mi SW 10.4 mph - N/A   Partly Cloudy
8:53 PM 75.0 °F - 66.0 °F 73% 29.94 in 10.0 mi SW 10.4 mph - N/A   Partly Cloudy
9:53 PM 73.9 °F - 66.9 °F 79% 29.96 in 10.0 mi WSW 10.4 mph - N/A   Partly Cloudy
10:53 PM 73.0 °F - 66.9 °F 81% 29.96 in 10.0 mi SSW 8.1 mph - N/A   Partly Cloudy
11:53 PM 72.0 °F - 68.0 °F 87% 29.96 in 10.0 mi SSW 6.9 mph - N/A   Partly Cloudy